Regional Weather Roundup
Issued by NWS

Home | Current Version | Previous Version | Graphics & Text | Print | Product List | Glossary On
Versions: 1 2 3 4 5 6 7 8 9 10 11 12 13 14 15 16 17 18 19 20 21 22 23 24 25 26 27 28 29 30 31 32 33 34 35 36 37 38 39 40 41 42 43 44 45 46 47 48 49 50
000
ASUS43 KFSD 171902
RWRSD

WEATHER ROUNDUP FOR SOUTH DAKOTA
NATIONAL WEATHER SERVICE SIOUX FALLS SD
100 PM CST FRI NOV 17 2017

NOTE: "FAIR" INDICATES FEW OR NO CLOUDS BELOW 12,000 FEET WITH NO
SIGNIFICANT WEATHER AND/OR OBSTRUCTIONS TO VISIBILITY.


SDZ001>005-009-010-012>017-172000-
NORTHWEST AND NORTH CENTRAL SOUTH DAKOTA

CITY           SKY/WX    TMP DP  RH WIND       PRES   REMARKS
BUFFALO          N/A     44  34  67 W14       29.57F
FAITH            N/A     42  36  79 W7        29.64F
MOBRIDGE       CLOUDY    43  30  60 NE3       29.63F
$$

SDZ012>016-024>037-041>051-057-063-072>074-172000-
SOUTHWEST AND SOUTH CENTRAL SOUTH DAKOTA

CITY           SKY/WX    TMP DP  RH WIND       PRES   REMARKS
RAPID CTY ARPT CLOUDY    41  36  82 S7        29.64F
PIERRE         CLOUDY    43  38  82 NW8       29.63F
CUSTER         CLOUDY    32  30  92 SW6       29.60F FOG     WCI  26
ELLSWORTH AFB  CLOUDY    39  39 100 E7        29.63
PHILIP         CLOUDY    43  36  76 NW5       29.66F
PINE RIDGE     CLOUDY    44  31  60 E10       29.64F
SPEARFISH      LGT RAIN  36  36 100 W6        29.65S
WINNER         FAIR      47  36  65 N8        29.62F
$$

SDZ004>011-016>023-039-040-172000-
NORTHEAST SOUTH DAKOTA

CITY           SKY/WX    TMP DP  RH WIND       PRES   REMARKS
ABERDEEN       CLOUDY    44  31  60 N10       29.64F
WATERTOWN      CLOUDY    43  34  70 N15       29.60F
BROOKINGS      CLOUDY    44  35  70 N7        29.58F
SISSETON         N/A     39  32  76 N15       29.63F
$$

SDZ017-020-022-023-036>040-048>070-172000-
SOUTHEAST SOUTH DAKOTA

CITY           SKY/WX    TMP DP  RH WIND       PRES   REMARKS
SIOUX FALLS    PTSUNNY   50  39  66 N12       29.59R
HURON          CLOUDY    46  33  60 N13       29.61F
CHAMBERLAIN    CLOUDY    46  37  68 N6        29.63F
MITCHELL       CLOUDY    45  35  68 N15       29.63R
YANKTON        CLOUDY    45  36  70 NW17      29.57F
$$

ABBREVIATIONS USED IN REMARKS
   TC - TEMPERATURE IN CELSIUS
  WCI - WIND CHILL INDEX
   HX - HEAT INDEX
  VSB - VISIBILITY





USA.gov is the U.S. government's official web portal to all federal, state and local government web resources and services.